Lincoln, NE

5:00 PM CST on December 05, 2019 (GMT -0600)
Lincoln Municipal

Weather History for KLNK - October, 2019

Change the Weather History Date:

Saturday, October 19, 2019

  Actual Average Record
Temperature  
Mean Temperature 58 °F 52 °F  
Max Temperature 70 °F 65 °F 88 °F (2003)
Min Temperature 46 °F 40 °F 12 °F (1972)
Degree Days  
Heating Degree Days 7 13  
Month to date heating degree days 217 192  
Since 1 July heating degree days 225 290  
Cooling Degree Days 0 0  
Month to date cooling degree days 1 12  
Year to date cooling degree days 1332 1170  
Growing Degree Days 9 (Base 50)    
Moisture  
Dew Point 41 °F    
Average Humidity 56    
Maximum Humidity 86    
Minimum Humidity 25    
Precipitation  
Precipitation 0.11 in 0.06 in 1.02 in (1962)
Month to date precipitation 4.61 1.29  
Year to date precipitation 32.67 25.89  
Snow  
Snow 0.00 in 0.00 in T in (1982)
Month to date snowfall 0.0 0.2  
Since 1 July snowfall 0.0 0.2  
Since 1 September snowfall 0.0 0.2  
Snow Depth 0.00 in    
Sea Level Pressure  
Sea Level Pressure 29.78 in    
Wind  
Wind Speed 5 mph (NW)    
Max Wind Speed 17 mph    
Max Gust Speed 21 mph    
Visibility 10 miles    
Events Rain    
T = Trace of Precipitation, MM = Missing Value Source: NWS Daily Summary

Daily Weather History Graph

Daily Weather History Graph

Search for Another Location

Airport or City:

Astronomy

Oct. 19, 2019 Rise Set
Actual Time 7:42 AM CDT 6:40 PM CDT
Civil Twilight 7:14 AM CDT 7:08 PM CDT
Nautical Twilight 6:42 AM CDT 7:40 PM CDT
Astronomical Twilight 6:11 AM CDT 8:12 PM CDT
Moon 10:49 PM CDT (10/19) 1:17 PM CDT (10/19)
Length of Visible Light 11h 53m
Length of Day
10h 58m
Waning Gibbous, 69% of the Moon is Illuminated
Oct 19
Waning Gibbous
Oct 21
Last Quarter
Oct 27
New
Nov 4
First Quarter
Nov 12
Full

Hourly Weather History & Observations

Time (CDT) Temp. Dew Point Humidity Pressure Visibility Wind Dir Wind Speed Gust Speed Precip Events Conditions
12:54 AM 59.0 °F 46.9 °F 64% 29.72 in 10.0 mi WNW 11.5 mph - 0.00 in Rain Light Rain
1:54 AM 53.1 °F 48.0 °F 83% 29.69 in 8.0 mi NNW 15.0 mph - 0.10 in Rain Light Rain
2:54 AM 53.1 °F 46.9 °F 80% 29.71 in 10.0 mi North 3.5 mph - 0.01 in   Overcast
3:54 AM 52.0 °F 48.0 °F 86% 29.72 in 10.0 mi Calm Calm - 0.00 in Rain Light Rain
4:54 AM 52.0 °F 46.9 °F 83% 29.74 in 10.0 mi West 5.8 mph - 0.00 in   Overcast
6:54 AM 50.0 °F 45.0 °F 83% 29.78 in 10.0 mi Calm Calm - N/A   Partly Cloudy
7:54 AM 48.9 °F 44.1 °F 83% 29.80 in 10.0 mi WNW 4.6 mph - N/A   Clear
8:54 AM 50.0 °F 43.0 °F 77% 29.83 in 10.0 mi NNW 3.5 mph - N/A   Clear
9:54 AM 55.9 °F 45.0 °F 67% 29.83 in 10.0 mi NW 10.4 mph - N/A   Clear
10:54 AM 59.0 °F 44.1 °F 58% 29.83 in 10.0 mi NNW 4.6 mph - N/A   Clear
11:54 AM 63.0 °F 43.0 °F 48% 29.82 in 10.0 mi Calm Calm - N/A   Clear
12:54 PM 64.9 °F 41.0 °F 42% 29.81 in 10.0 mi Variable 6.9 mph - N/A   Clear
1:54 PM 66.9 °F 36.0 °F 32% 29.79 in 10.0 mi NW 9.2 mph - N/A   Clear
2:54 PM 69.1 °F 33.1 °F 26% 29.78 in 10.0 mi NW 8.1 mph - N/A   Clear
3:54 PM 69.1 °F 33.1 °F 26% 29.76 in 10.0 mi NNE 6.9 mph - N/A   Clear
4:54 PM 70.0 °F 32.0 °F 25% 29.76 in 10.0 mi Calm Calm - N/A   Clear
5:54 PM 66.0 °F 32.0 °F 28% 29.77 in 10.0 mi Calm Calm - N/A   Clear
6:54 PM 59.0 °F 36.0 °F 42% 29.78 in 10.0 mi SSW 4.6 mph - N/A   Clear
7:54 PM 55.0 °F 37.0 °F 51% 29.81 in 10.0 mi Calm Calm - N/A   Clear
8:54 PM 52.0 °F 39.9 °F 63% 29.81 in 10.0 mi Calm Calm - N/A   Clear
9:54 PM 52.0 °F 37.9 °F 59% 29.81 in 10.0 mi SSE 6.9 mph - N/A   Clear
10:54 PM 51.1 °F 37.0 °F 59% 29.81 in 10.0 mi SSW 3.5 mph - N/A   Clear
11:54 PM 46.9 °F 37.0 °F 68% 29.81 in 10.0 mi SSE 4.6 mph - N/A   Clear